Location: Indian Hills
(32.9760°N, 85.9450°W)
Time: 08:38:13
(UTC+00:00)

ALOS - Pass Details

Date: 09 December 2019
Orbit: 684 x 685 km, 97.8° (Epoch: 19 January)

Event Time Altitude Azimuth Distance (km) Brightness Sun altitude
Rises 10:38:07 0° 18° (NNE) 3,053 5.7 -23.8°
Reaches altitude 10° 10:40:26 10° 24° (NNE) 2,133 4.9 -23.4°
Maximum altitude 10:44:57 49° 99° (E) 882 3.2 -22.4°
Drops below altitude 10° 10:49:27 10° 175° (S) 2,120 5.0 -21.5°
Sets 10:51:44 0° 180° (S) 3,031 5.8 -21.1°
